[[{"header":{"parameterUnit":"m.s-1","parameterCategory":1,"la1":30.2991,"la2":30.254,"lo1":-89.0895,"lo2":-89.0444,"dx":0.0017,"dy":0.0017,"nx":28,"ny":28,"refTime":"2022-11-18T15:00:00:Z","depth":0,"parameterNumber":2,"parameterNumberName":"U-component_of_WINDS"},"data":[0,0,0,0,0,0,0,0,0,0,0,0,0,0,0,0,0,0,0,0,0,0,0,0,0,0,0,0,0,0,0,0,0,0,0,0,0,0,0,0,0,0,0,0,0,0,0,0,0,0,0,0,0,0,0,0,0,0,-3.3982,-3.3983,0,-3.4087,-3.4088,-3.4089,-3.4001,-3.3998,-3.3994,-3.399,-3.4099,-3.4105,-3.4111,0,0,0,0,0,0,0,0,0,0,0,0,0,-3.3704,-3.3709,-3.3982,-3.3983,-3.3984,-3.4087,-3.4088,-3.409,-3.4002,-3.3997,-3.3993,-3.3989,-3.4097,-3.4104,-3.4112,0,0,0,0,0,0,0,0,0,0,0,0,0,-3.3818,-3.3711,-3.3981,-3.3953,-3.3951,-3.4086,-3.4088,-3.409,-3.4003,-3.3997,-3.3992,-3.3987,-3.4094,-3.4103,-3.4113,-3.4281,0,0,-3.4141,-3.4146,0,0,0,0,0,0,0,0,-3.3812,-3.3829,-3.3956,-3.3955,-3.3954,-3.4025,-3.403,-3.4154,-3.4004,-3.3983,-3.399,-3.3984,-3.4079,-3.4089,-3.4121,-3.4287,-3.4291,-3.4142,-3.4148,-3.4152,-3.4155,0,0,0,0,0,0,0,-3.3804,-3.3824,-3.4023,-3.3958,-3.3956,-3.3934,-3.3945,-3.4053,-3.4061,-3.3985,-3.3979,-3.3992,-3.4077,-3.4112,-3.4123,-3.4293,-3.4142,-3.415,-3.4156,-3.416,-3.4602,-3.4607,0,0,0,0,0,0,-3.3799,-3.3818,-3.402,-3.4026,-3.3868,-3.3944,-3.3955,-3.4008,-3.4059,-3.4062,-3.3997,-3.3988,-3.4099,-3.4112,-3.4126,-3.4328,-3.4152,-3.4161,-3.4166,-3.4596,-3.4603,-3.4609,0,0,0,0,0,0,-3.3794,-3.3818,-3.4016,-3.392,-3.3944,-3.3955,-3.4014,-3.4013,-3.4048,-3.4068,-3.4069,-3.4031,-3.4095,-3.4113,-3.4243,-3.433,-3.4165,-3.4174,-3.4588,-3.4598,-3.4606,-3.4733,0,0,0,0,0,0,-3.3786,-3.3817,-3.3881,-3.3923,-3.3949,-3.4132,-3.402,-3.4019,-3.4064,-3.4053,-3.4101,-3.4104,-3.4092,-3.423,-3.4253,-3.4341,-3.4181,-3.4581,-3.4593,-3.4603,-3.4721,-3.4745,-3.4766,0,0,0,0,0,-3.3776,-3.3913,-3.3885,-3.391,-3.4031,-3.4137,-3.4152,-3.4136,-3.4072,-3.4137,-3.415,-3.4102,-3.4317,-3.4244,-3.4269,-3.4361,-3.4575,-3.4589,-3.4602,-3.4711,-3.474,-3.4765,0,0,0,0,0,0,-3.3882,-3.3918,-3.3887,-3.4041,-3.4087,-3.4122,-3.4204,-3.4168,-3.4233,-3.422,-3.4196,-3.4208,-3.4346,-3.4365,-3.4284,-3.4527,-3.4435,-3.4455,-3.4509,-3.4537,-3.4559,-3.4553,-3.4189,0,0,0,0,0,-3.3923,-3.4007,-3.4033,-3.4167,-3.4191,-3.4194,-3.4239,-3.4223,-3.4269,-3.4288,-3.431,-3.4357,-3.4434,-3.4486,-3.4559,-3.4722,-3.4731,-3.4797,-3.482,-3.4838,-3.4856,-3.4944,-3.4974,-3.4654,-3.4654,-3.4654,0,0,-3.4009,-3.4039,-3.4094,-3.4189,-3.4222,-3.4309,-3.4211,-3.4307,-3.4372,-3.4302,-3.4428,-3.4445,-3.4496,-3.4643,-3.4709,-3.4664,-3.4946,-3.4855,-3.487,-3.4878,-3.4961,-3.4991,-3.5018,-3.4663,-3.4662,-3.466,0,0,-3.4212,-3.4242,-3.4357,-3.4392,-3.4443,-3.4444,-3.4471,-3.4512,-3.4521,-3.4646,-3.4596,-3.4671,-3.4806,-3.4844,-3.4881,-3.5095,-3.5054,-3.5119,-3.5237,-3.5323,-3.5348,-3.537,-3.5448,-3.5476,-3.5136,-3.5136,-3.5137,0,-3.4313,-3.4442,-3.442,-3.4521,-3.4564,-3.4504,-3.462,-3.4655,-3.4728,-3.4759,-3.4707,-3.4874,-3.4903,-3.5059,-3.5111,-3.5143,-3.5174,-3.5115,-3.5346,-3.5368,-3.5389,-3.5463,-3.5492,-3.5144,-3.5143,-3.5142,-3.5142,0,-3.4564,-3.4655,-3.4741,-3.4813,-3.4865,-3.4973,-3.4967,-3.5022,-3.5,-3.5006,-3.5134,-3.5166,-3.5245,-3.528,-3.5259,-3.5433,-3.5403,-3.5349,-3.5258,-3.5427,-3.5496,-3.5524,-3.5155,-3.5152,-3.515,-3.5148,0,0,-3.4839,-3.4896,-3.4928,-3.496,-3.5011,-3.508,-3.5184,-3.5261,-3.531,-3.536,-3.5448,-3.5562,-3.5512,-3.5554,-3.5536,-3.5612,-3.578,-3.5548,-3.5549,-3.5592,-3.5974,-3.6017,-3.605,-3.5752,-3.5757,-3.5761,-3.5971,0,-3.5045,-3.5227,-3.5209,-3.5382,-3.5466,-3.5409,-3.5499,-3.5541,-3.5548,-3.562,-3.5627,-3.5709,-3.5636,-3.5661,-3.5733,-3.5745,-3.5857,-3.5729,-3.5834,-3.5838,-3.5826,-3.6085,-3.6131,-3.6327,-3.5997,-3.6002,-3.6005,0,-3.531,-3.537,-3.5552,-3.559,-3.5624,-3.5706,-3.5774,-3.5843,-3.5888,-3.5888,-3.5934,-3.5904,-3.6008,-3.5912,-3.6055,-3.5969,-3.601,-3.6022,-3.6029,-3.604,-3.5934,-3.6106,-3.6389,-3.6419,-3.6047,-3.6044,-3.6041,0,-3.5494,-3.5621,-3.5746,-3.5774,-3.5821,-3.588,-3.5902,-3.5942,-3.5988,-3.6047,-3.6077,-3.6148,-3.6187,-3.6242,-3.6231,-3.6162,-3.6378,-3.628,-3.6381,-3.6382,-3.6432,-3.6429,-3.6728,-3.6455,-3.6454,-3.6454,-3.6453,0,-3.5727,-3.5841,-3.5829,-3.5906,-3.6032,-3.6009,-3.6134,-3.6148,-3.6184,-3.6262,-3.6216,-3.6291,-3.6271,-3.6345,-3.6336,-3.6457,-3.6474,-3.6477,-3.6474,-3.6483,-3.6483,-3.6512,-3.6499,-3.6462,-3.646,-3.6458,-3.6457,0,-3.5956,-3.5952,-3.6085,-3.6118,-3.6129,-3.622,-3.6248,-3.632,-3.6323,-3.6423,-3.6445,-3.645,-3.6534,-3.6528,-3.6623,-3.6617,-3.6766,-3.6746,-3.6752,-3.6748,-3.685,-3.6841,-3.7179,-3.7223,-3.692,-3.6923,-3.6925,0,-3.6106,-3.6192,-3.6234,-3.6283,-3.631,-3.639,-3.6437,-3.6417,-3.6468,-3.6525,-3.6591,-3.667,-3.6734,-3.6871,-3.6883,-3.6955,-3.6937,-3.705,-3.6948,-3.6954,-3.6941,-3.6937,-3.6946,-3.7072,-3.7075,-3.7078,-3.708,0,-3.6373,-3.6367,-3.6437,-3.6507,-3.6564,-3.6618,-3.6667,-3.671,-3.6694,-3.6754,-3.684,-3.6889,-3.6985,-3.7065,-3.7133,-3.7155,-3.7117,-3.7112,-3.7139,-3.715,-3.7151,-3.7153,-3.6809,-3.7105,-3.7102,-3.71,-3.7099,-3.7098,-3.6569,-3.6642,-3.6683,-3.6763,-3.6797,-3.6843,-3.6913,-3.6924,-3.6995,-3.7073,-3.7056,-3.7152,-3.7193,-3.7281,-3.731,-3.7384,-3.7344,-3.7383,-3.7394,-3.7404,-3.7417,-3.7137,-3.7396,-3.7396,-3.7395,-3.7394,-3.7394,0,-3.6835,-3.6858,-3.6931,-3.7001,-3.7063,-3.7019,-3.707,-3.7125,-3.7211,-3.7252,-3.7315,-3.7413,-3.749,-3.7507,-3.7581,-3.7637,-3.7621,-3.7658,-3.7654,-3.766,-3.7448,-3.7418,-3.7669,-3.7669,-3.7669,-3.7669,-3.7669,-3.7669,-3.6981,-3.7104,-3.7103,-3.7242,-3.7263,-3.7358,-3.7391,-3.7433,-3.7466,-3.7578,-3.7642,-3.7652,-3.7684,-3.7759,-3.7827,-3.783,-3.786,-3.7904,-3.79,-3.7703,-3.7675,-3.7649,-3.762,-3.791,-3.7911,-3.8106,-3.8108,-3.8109]},{"header":{"parameterUnit":"m.s-1","parameterCategory":1,"la1":30.2991,"la2":30.254,"lo1":-89.0895,"lo2":-89.0444,"dx":0.0017,"dy":0.0017,"nx":28,"ny":28,"refTime":"2022-11-18T15:00:00:Z","depth":0,"parameterNumber":3,"parameterNumberName":"V-component_of_WINDS"},"data":[0,0,0,0,0,0,0,0,0,0,0,0,0,0,0,0,0,0,0,0,0,0,0,0,0,0,0,0,0,0,0,0,0,0,0,0,0,0,0,0,0,0,0,0,0,0,0,0,0,0,0,0,0,0,0,0,0,0,-6.9503,-6.9504,0,-6.9611,-6.9612,-6.9614,-6.9517,-6.9513,-6.9509,-6.9506,-6.961,-6.9617,-6.9623,0,0,0,0,0,0,0,0,0,0,0,0,0,-6.9205,-6.9211,-6.9503,-6.9504,-6.9505,-6.9611,-6.9612,-6.9614,-6.9518,-6.9513,-6.9508,-6.9504,-6.9608,-6.9616,-6.9624,0,0,0,0,0,0,0,0,0,0,0,0,0,-6.9326,-6.9213,-6.9502,-6.947,-6.9469,-6.9611,-6.9612,-6.9614,-6.9519,-6.9513,-6.9507,-6.9502,-6.9606,-6.9615,-6.9625,-6.9802,0,0,-6.9654,-6.9658,0,0,0,0,0,0,0,0,-6.9319,-6.9337,-6.9474,-6.9473,-6.9471,-6.9545,-6.9546,-6.9677,-6.952,-6.95,-6.9506,-6.9499,-6.9593,-6.9603,-6.9636,-6.9807,-6.9811,-6.9655,-6.9661,-6.9665,-6.9668,0,0,0,0,0,0,0,-6.9311,-6.9332,-6.9545,-6.9476,-6.9474,-6.9448,-6.9459,-6.957,-6.9578,-6.9501,-6.9494,-6.9509,-6.9591,-6.9627,-6.9638,-6.9813,-6.9655,-6.9663,-6.9669,-6.9673,-7.0132,-7.0138,0,0,0,0,0,0,-6.9307,-6.9325,-6.9542,-6.9549,-6.9379,-6.9458,-6.947,-6.9527,-6.9576,-6.9578,-6.9514,-6.9504,-6.9614,-6.9627,-6.9641,-6.9851,-6.9665,-6.9674,-6.968,-7.0126,-7.0133,-7.014,0,0,0,0,0,0,-6.9301,-6.9327,-6.9537,-6.9435,-6.946,-6.947,-6.9534,-6.9532,-6.9568,-6.9586,-6.9586,-6.955,-6.961,-6.9628,-6.9763,-6.9854,-6.9678,-6.9687,-7.0118,-7.0128,-7.0137,-7.0273,0,0,0,0,0,0,-6.9293,-6.9326,-6.9395,-6.9438,-6.9466,-6.966,-6.954,-6.9539,-6.9586,-6.9574,-6.962,-6.9622,-6.9606,-6.9749,-6.9772,-6.9864,-6.9695,-7.011,-7.0123,-7.0134,-7.0261,-7.0286,-7.0308,0,0,0,0,0,-6.9282,-6.9428,-6.9399,-6.9426,-6.9553,-6.9665,-6.9681,-6.9662,-6.9594,-6.9662,-6.9673,-6.962,-6.984,-6.9764,-6.9789,-6.9885,-7.0104,-7.0119,-7.0133,-7.025,-7.0281,-7.0308,0,0,0,0,0,0,-6.9394,-6.9433,-6.9401,-6.9566,-6.9613,-6.9649,-6.9735,-6.9696,-6.9763,-6.9749,-6.972,-6.9731,-6.9874,-6.9892,-6.9807,-7.0058,-6.996,-6.9981,-7.0041,-7.0071,-7.0094,-7.0086,-6.9703,0,0,0,0,0,-6.9438,-6.9528,-6.9556,-6.9698,-6.9724,-6.9726,-6.9774,-6.9755,-6.9802,-6.9821,-6.9842,-6.9888,-6.9967,-7.002,-7.0093,-7.0263,-7.027,-7.0341,-7.0364,-7.0384,-7.0402,-7.0491,-7.0522,-7.0188,-7.0187,-7.0187,0,0,-6.9529,-6.9561,-6.962,-6.9721,-6.9756,-6.9848,-6.9743,-6.9845,-6.9912,-6.9836,-6.9965,-6.9982,-7.0031,-7.0184,-7.0252,-7.0204,-7.0496,-7.0402,-7.0418,-7.0425,-7.0509,-7.0541,-7.0569,-7.0197,-7.0196,-7.0194,0,0,-6.9742,-6.9776,-6.9898,-6.9935,-6.999,-6.999,-7.0019,-7.0061,-7.007,-7.0199,-7.0144,-7.0222,-7.0359,-7.0396,-7.0433,-7.0659,-7.0612,-7.0683,-7.0807,-7.0895,-7.0921,-7.0944,-7.1024,-7.1053,-7.0701,-7.0701,-7.0701,0,-6.9848,-6.9986,-6.9965,-7.0071,-7.0116,-7.0054,-7.0175,-7.0211,-7.0286,-7.0318,-7.0263,-7.0433,-7.0462,-7.0622,-7.0677,-7.0709,-7.074,-7.0678,-7.092,-7.0943,-7.0964,-7.1039,-7.107,-7.0709,-7.0708,-7.0707,-7.0707,0,-7.0113,-7.021,-7.0301,-7.0377,-7.0432,-7.0546,-7.0539,-7.0597,-7.0573,-7.0578,-7.071,-7.0742,-7.0821,-7.0857,-7.0834,-7.1013,-7.0982,-7.0924,-7.0826,-7.1004,-7.1075,-7.1104,-7.0721,-7.0718,-7.0716,-7.0714,0,0,-7.04,-7.0463,-7.0497,-7.053,-7.0585,-7.0658,-7.0767,-7.0846,-7.0896,-7.0949,-7.1038,-7.1155,-7.1102,-7.1144,-7.1124,-7.1201,-7.1376,-7.1133,-7.1134,-7.1177,-7.1574,-7.1618,-7.1652,-7.1345,-7.1351,-7.1355,-7.157,0,-7.0615,-7.0808,-7.0791,-7.0972,-7.106,-7.1001,-7.1095,-7.1138,-7.1145,-7.1218,-7.1225,-7.1308,-7.1232,-7.1257,-7.133,-7.134,-7.1456,-7.1324,-7.1426,-7.143,-7.1416,-7.1689,-7.1735,-7.1936,-7.1597,-7.1602,-7.1606,0,-7.0892,-7.0957,-7.1148,-7.1188,-7.1224,-7.131,-7.138,-7.1452,-7.1498,-7.1497,-7.1544,-7.1511,-7.1618,-7.1517,-7.1663,-7.1574,-7.1614,-7.1625,-7.1632,-7.1641,-7.1529,-7.1704,-7.2,-7.203,-7.1649,-7.1645,-7.1642,0,-7.1082,-7.1216,-7.1348,-7.1378,-7.1429,-7.149,-7.1514,-7.1554,-7.1602,-7.1662,-7.1693,-7.1764,-7.1803,-7.1858,-7.1844,-7.1772,-7.1993,-7.1891,-7.1994,-7.1994,-7.2043,-7.204,-7.2349,-7.207,-7.2069,-7.2069,-7.2068,0,-7.1323,-7.1442,-7.1434,-7.1515,-7.1645,-7.1623,-7.1752,-7.1767,-7.1804,-7.1884,-7.1836,-7.1913,-7.1889,-7.1964,-7.1953,-7.2075,-7.2093,-7.2094,-7.2089,-7.2098,-7.2098,-7.2124,-7.211,-7.2077,-7.2075,-7.2073,-7.2072,0,-7.1558,-7.1557,-7.1696,-7.1733,-7.1745,-7.1839,-7.1869,-7.1944,-7.1947,-7.205,-7.2072,-7.2076,-7.2162,-7.2153,-7.2248,-7.224,-7.2391,-7.237,-7.2377,-7.2372,-7.2475,-7.2465,-7.2812,-7.2855,-7.2548,-7.2551,-7.2553,0,-7.1712,-7.1802,-7.1849,-7.1901,-7.1929,-7.2013,-7.2062,-7.2043,-7.2096,-7.2154,-7.2222,-7.2303,-7.2367,-7.2505,-7.2515,-7.2586,-7.2566,-7.2683,-7.2577,-7.2582,-7.2567,-7.2562,-7.257,-7.2704,-7.2707,-7.271,-7.2712,0,-7.1986,-7.1981,-7.2055,-7.2129,-7.219,-7.2246,-7.2298,-7.2342,-7.2328,-7.2389,-7.2476,-7.2526,-7.2623,-7.2704,-7.2771,-7.2792,-7.275,-7.2746,-7.2773,-7.2783,-7.2783,-7.2784,-7.2433,-7.2738,-7.2735,-7.2733,-7.2732,-7.2731,-7.2185,-7.2262,-7.2307,-7.239,-7.2427,-7.2476,-7.2548,-7.2561,-7.2634,-7.2713,-7.2697,-7.2795,-7.2836,-7.2923,-7.2951,-7.3025,-7.2983,-7.3023,-7.3033,-7.3043,-7.3055,-7.2771,-7.3038,-7.3037,-7.3036,-7.3035,-7.3035,0,-7.2456,-7.2482,-7.2559,-7.2633,-7.2698,-7.2654,-7.2708,-7.2765,-7.2853,-7.2896,-7.296,-7.306,-7.3137,-7.3153,-7.3226,-7.3283,-7.3265,-7.3303,-7.3298,-7.3304,-7.3089,-7.3058,-7.3316,-7.3316,-7.3316,-7.3316,-7.3316,-7.3316,-7.2604,-7.2732,-7.2733,-7.2877,-7.2901,-7.2999,-7.3034,-7.3078,-7.3112,-7.3226,-7.3291,-7.3301,-7.3333,-7.3408,-7.3476,-7.3478,-7.3507,-7.3553,-7.3548,-7.3347,-7.3319,-7.3292,-7.3263,-7.3559,-7.356,-7.3756,-7.3757,-7.3759]}]]